WX4TAZ Weather Reports


time (UTC)temp
C
wind
direction
speed
KPH
gust
KPH
rain 1hr
cm
rain 24hr
cm
rain mn
cm
humidity
%
barometer
mb
20260505034603 12 351 17.7 30.6 0.00 0.00 0.00 31 1007.6
20260505034103 12 352 17.7 30.6 0.00 0.00 0.00 32 1007.4
20260505032603 12 352 17.7 30.6 0.00 0.00 0.00 31 1007.4
20260505031603 12 6 12.9 29.0 0.00 0.00 0.00 32 1007.1
20260505024603 12 347 20.9 30.6 0.00 0.00 0.00 31 1007.2
20260505022103 13 359 16.1 29.0 0.00 0.00 0.00 31 1006.5
20260505020603 13 349 20.9 33.8 0.00 0.00 0.00 31 1006.6
20260505013603 14 350 25.7 45.1 0.00 0.00 0.00 29 1006.1
20260505013103 14 352 29.0 45.1 0.00 0.00 0.00 29 1005.8
20260505012603 15 351 29.0 43.5 0.00 0.00 0.00 28 1005.8
20260505010602 15 347 27.4 40.2 0.00 0.00 0.00 26 1005.6
20260505004603 17 343 22.5 35.4 0.00 0.00 0.00 24 1004.9
20260505000103 19 338 24.1 41.8 0.00 0.00 0.00 21 1004.1
20260504235103 20 341 22.5 37.0 0.00 0.00 0.00 21 1004.0
20260504234103 20 337 24.1 40.2 0.00 0.00 0.00 19 1003.9
20260504233104 21 341 24.1 37.0 0.00 0.00 0.00 19 1003.6
20260504225603 21 347 30.6 46.7 0.00 0.00 0.00 17 1003.0
20260504224103 22 333 27.4 41.8 0.00 0.00 0.00 17 1002.7
20260504223103 22 337 27.4 38.6 0.00 0.00 0.00 16 1002.6
20260504222103 22 337 29.0 43.5 0.00 0.00 0.00 16 1002.5
20260504221603 23 337 25.7 38.6 0.00 0.00 0.00 16 1002.3
20260504221103 23 339 25.7 38.6 0.00 0.00 0.00 16 1002.1
20260504215103 23 340 24.1 35.4 0.00 0.00 0.00 16 1002.2
20260504214603 24 339 20.9 35.4 0.00 0.00 0.00 16 1002.1
20260504214103 24 339 19.3 35.4 0.00 0.00 0.00 17 1002.0
20260504212603 24 332 20.9 30.6 0.00 0.00 0.00 16 1001.7
20260504202103 25 324 19.3 32.2 0.00 0.00 0.00 19 1001.4
20260504201603 25 335 22.5 38.6 0.00 0.00 0.00 20 1001.4
20260504200104 25 341 17.7 30.6 0.00 0.00 0.00 22 1001.3
20260504193603 25 330 24.1 35.4 0.00 0.00 0.00 23 1001.2
20260504192602 25 320 24.1 38.6 0.00 0.00 0.00 23 1001.0
20260504190104 26 319 19.3 33.8 0.00 0.00 0.00 20 1000.8
20260504185603 26 310 20.9 33.8 0.00 0.00 0.00 18 1000.8
20260504183602 26 323 24.1 40.2 0.00 0.00 0.00 19 1000.8
20260504182603 26 312 22.5 41.8 0.00 0.00 0.00 16 1000.7
20260504181602 26 318 24.1 37.0 0.00 0.00 0.00 18 1000.7
20260504181103 26 322 20.9 37.0 0.00 0.00 0.00 18 1000.7
20260504180103 26 298 17.7 30.6 0.00 0.00 0.00 18 1000.8
20260504174104 26 300 16.1 33.8 0.00 0.00 0.00 17 1000.8
20260504171104 25 297 22.5 33.8 0.00 0.00 0.00 19 1000.9
20260504170603 25 287 20.9 40.2 0.00 0.00 0.00 19 1000.9
20260504141103 16 272 8.0 11.3 0.00 0.00 0.00 38 1001.6
20260504140103 16 287 8.0 12.9 0.00 0.00 0.00 41 1001.5
20260504130602 13 0 0.0 0.0 0.00 0.00 0.00 50 1001.4
20260504130103 13 0 0.0 0.0 0.00 0.00 0.00 52 1001.4
20260504110603 10 0 0.0 0.0 0.00 0.00 0.00 49 1001.3
20260504090104 11 117 0.0 1.6 0.00 0.00 0.00 47 1002.2
20260504081104 12 153 1.6 3.2 0.00 0.00 0.00 44 1002.8
20260504050603 16 214 0.0 1.6 0.00 0.00 0.00 30 1005.6
20260504050105 16 214 0.0 1.6 0.00 0.00 0.00 30 1005.5
20260504044103 17 0 0.0 0.0 0.00 0.00 0.00 28 1005.6
20260504043603 17 0 0.0 0.0 0.00 0.00 0.00 28 1005.6